Iliamna, AK

8:52 PM AKDT on July 24, 2017 (GMT -0800)
Iliamna

Weather History for PAIL - January, 2014

Change the Weather History Date:

Monday, January 20, 2014

  Actual Average Record
Temperature  
Mean Temperature 40 °F -  
Max Temperature 45 °F 24 °F 45 °F (2014)
Min Temperature 35 °F 12 °F -40 °F (1947)
Degree Days  
Heating Degree Days 25    
Moisture  
Dew Point 37 °F    
Average Humidity 86    
Maximum Humidity 97    
Minimum Humidity 63    
Precipitation  
Precipitation 0.20 in - - ()
Sea Level Pressure  
Sea Level Pressure 29.45 in    
Wind  
Wind Speed 26 mph (East)    
Max Wind Speed 36 mph    
Max Gust Speed 51 mph    
Visibility 9 miles    
Events Rain    
Averages and records for this station are not official NWS values.
T = Trace of Precipitation, MM = Missing Value Source: NWS Daily Summary

Daily Weather History Graph

Daily Weather History Graph

Search for Another Location

Airport or City:

Trip Planner

Search our weather history database for the weather conditions in past years. The results will help you decide how hot, cold, wet, or windy it might be!

Date:

Astronomy

Jan. 20, 2014 Rise Set
Actual Time 9:56 AM AKST 5:05 PM AKST
Civil Twilight 9:06 AM AKST 5:56 PM AKST
Nautical Twilight 8:13 AM AKST 6:48 PM AKST
Astronomical Twilight 7:24 AM AKST 7:37 PM AKST
Moon 11:16 PM AKST (1/20) 10:43 AM AKST (1/20)
Length of Visible Light 8h 50m
Length of Day
7h 09m
Waning Gibbous, 81% of the Moon is Illuminated
Jan 20
Waning Gibbous
Jan 23
Last Quarter
Jan 30
New
Feb 6
First Quarter
Feb 14
Full

Hourly Weather History & Observations

Time (AKST) Temp. Windchill Dew Point Humidity Pressure Visibility Wind Dir Wind Speed Gust Speed Precip Events Conditions
12:53 AM 42.1 °F 31.0 °F 35.1 °F 76% 29.44 in 10.0 mi East 32.2 mph 47.2 mph 0.00 in   Overcast
1:53 AM 39.9 °F 29.7 °F 36.0 °F 86% 29.45 in 10.0 mi East 23.0 mph 38.0 mph 0.00 in Rain Light Rain
3:53 AM 41.0 °F 30.9 °F 36.0 °F 82% 29.44 in 10.0 mi East 24.2 mph 43.7 mph N/A   Overcast
4:53 AM 41.0 °F 30.2 °F 37.0 °F 86% 29.47 in 10.0 mi East 27.6 mph 46.0 mph N/A   Overcast
5:53 AM 39.9 °F 30.0 °F 37.0 °F 89% 29.48 in 10.0 mi East 21.9 mph 34.5 mph N/A   Overcast
6:53 AM 39.9 °F 28.8 °F 37.9 °F 93% 29.49 in 10.0 mi East 27.6 mph 40.3 mph 0.00 in Rain Light Rain
7:53 AM 39.0 °F 27.6 °F 37.9 °F 96% 29.48 in 10.0 mi East 27.6 mph 44.9 mph 0.00 in   Overcast
8:53 AM 39.9 °F 29.2 °F 37.0 °F 89% 29.49 in 10.0 mi East 25.3 mph 35.7 mph 0.00 in   Overcast
9:53 AM 43.0 °F 33.3 °F 35.1 °F 74% 29.51 in 10.0 mi ESE 25.3 mph 39.1 mph N/A   Overcast
10:53 AM 43.0 °F 34.0 °F 33.1 °F 68% 29.48 in 10.0 mi East 21.9 mph 39.1 mph N/A   Overcast
11:53 AM 44.1 °F 33.3 °F 32.0 °F 63% 29.44 in 10.0 mi East 34.5 mph 47.2 mph N/A   Overcast
12:53 PM 42.1 °F 30.4 °F 34.0 °F 73% 29.42 in 10.0 mi East 35.7 mph 50.6 mph 0.00 in Rain Light Rain
1:53 PM 42.1 °F 31.9 °F 37.0 °F 82% 29.40 in 10.0 mi East 26.5 mph 43.7 mph 0.00 in Rain Light Rain
2:53 PM 39.9 °F 29.2 °F 37.9 °F 93% 29.42 in 5.0 mi East 25.3 mph 34.5 mph 0.03 in Rain Rain
3:04 PM 39.2 °F 28.7 °F 37.4 °F 93% 29.42 in 4.0 mi East 23.0 mph 34.5 mph 0.03 in Rain Rain
3:53 PM 39.9 °F 30.2 °F 39.0 °F 97% 29.44 in 5.0 mi East 20.7 mph 35.7 mph 0.12 in Rain Rain
4:53 PM 39.9 °F 31.1 °F 37.9 °F 93% 29.46 in 10.0 mi East 17.3 mph 29.9 mph 0.03 in Rain Light Rain
5:53 PM 39.9 °F 30.5 °F 37.9 °F 93% 29.46 in 10.0 mi East 19.6 mph 34.5 mph 0.01 in Rain Light Rain
6:53 PM 39.9 °F 29.7 °F 39.0 °F 97% 29.46 in 10.0 mi East 23.0 mph 32.2 mph 0.01 in Rain Light Rain
7:53 PM 41.0 °F 30.9 °F 39.0 °F 93% 29.46 in 10.0 mi East 24.2 mph 34.5 mph 0.01 in Rain Light Rain
8:53 PM 41.0 °F 31.1 °F 37.9 °F 89% 29.45 in 10.0 mi East 23.0 mph 34.5 mph 0.00 in Rain Light Rain
9:24 PM 41.0 °F 30.5 °F 37.4 °F 87% 29.44 in 10.0 mi East 26.5 mph 34.5 mph 0.00 in Rain Light Rain
9:53 PM 41.0 °F 30.2 °F 37.0 °F 86% 29.42 in 10.0 mi ESE 27.6 mph 35.7 mph 0.00 in Rain Light Rain
10:53 PM 41.0 °F 31.6 °F 37.0 °F 86% 29.42 in 10.0 mi East 20.7 mph 32.2 mph 0.00 in Rain Light Rain
11:53 PM 39.9 °F 32.5 °F 37.0 °F 89% 29.43 in 10.0 mi East 12.7 mph - 0.00 in   Overcast